Regional Weather Roundup
Issued by NWS Sioux Falls, SD

Home | Current Version | Previous Version | Text Only | Print | Product List | Glossary On
Versions: 1 2 3 4 5 6 7 8 9 10 11 12 13 14 15 16 17 18 19 20 21 22 23 24 25 26 27 28 29 30 31 32 33 34 35 36 37 38 39 40 41 42 43 44 45 46 47 48 49 50
000
ASUS43 KFSD 032110
RWRFSD

WEATHER ROUNDUP FOR SE SOUTH DAKOTA/SW MINNESOTA/NW IOWA
NATIONAL WEATHER SERVICE SIOUX FALLS SD
400 PM CDT MON AUG 03 2015

NOTE: "FAIR" INDICATES FEW OR NO CLOUDS BELOW 12,000 FEET WITH NO
SIGNIFICANT WEATHER AND OR OBSTRUCTIONS TO VISIBILITY.


SDZ038>040-050-052>070-032200-
SOUTHEAST SOUTH DAKOTA

CITY           SKY/WX    TMP DP  RH WIND       PRES   REMARKS
BROOKINGS      MOSUNNY   79  55  44 NW7       29.99S
CHAMBERLAIN    SUNNY     81  57  43 CALM      29.97F
HURON          SUNNY     82  52  35 W6        29.96F
MADISON        FAIR      77  55  47 NW9       29.99S
MITCHELL       SUNNY     84  58  40 N7        29.96F
SIOUX FALLS    MOSUNNY   81  58  45 W5        29.97F
WINNER         FAIR      87  56  34 E12       29.98F
YANKTON        SUNNY     81  57  44 SE5       29.96S
$$

MNZ071-072-080-081-089-090-097-098-032200-
SOUTHWEST MINNESOTA

CITY           SKY/WX    TMP DP  RH WIND       PRES   REMARKS
FAIRMONT       SUNNY     79  52  38 NW16      29.95S
JACKSON        MOSUNNY   79  54  41 NW8       29.97S
LUVERNE        MOSUNNY   79  55  44 W6        29.98S
MARSHALL       MOSUNNY   79  52  38 NW8       29.96F
MONTEVIDEO     SUNNY     82  54  36 N13       29.96S
PIPESTONE      SUNNY     79  52  38 NW9       29.98S
REDWOOD FALLS  SUNNY     81  49  32 W17       29.93F
TRACY          MOSUNNY   77  57  50 NW7       29.96F
WINDOM         SUNNY     79  54  41 NW8       29.96F
WORTHINGTON    PTSUNNY   79  54  41 W10       29.98S
$$

IAZ001>003-012>014-020>022-031-032-NEZ013-014-SDZ071-032200-
NORTHWEST IOWA

CITY           SKY/WX    TMP DP  RH WIND       PRES   REMARKS
CHEROKEE       SUNNY     78  58  49 W3        29.98S
DENISON        SUNNY     77  59  53 CALM      29.97S
ESTHERVILLE    SUNNY     78  54  43 NW9       29.96S
LE MARS        MOSUNNY   79  61  53 NW3       29.98F
ORANGE CITY    SUNNY     77  57  50 W8        29.98F
SHELDON        MOSUNNY   77  59  53 NW7       29.97S
SIOUX CITY     MOSUNNY   80  60  50 S5        29.97F
SPENCER        MOSUNNY   82  54  37 W10G17    29.97F
STORM LAKE     SUNNY     77  55  47 NW8       29.99F
$$

ABBREVIATIONS USED IN REMARKS
   TC - TEMPERATURE IN CELSIUS
  WCI - WIND CHILL INDEX
   HX - HEAT INDEX
  VSB - VISIBILITY




USA.gov is the U.S. government's official web portal to all federal, state and local government web resources and services.